Погода в Малом Антибесе

Россия / Кемеровская область (Кузбасс)     56°16′58″N   87°42′09″E
темп.,
°C
ветер,
м/с
пор.,
м/с
влажн.,
%
обл.,
%
осадки,
мм/ч
давл.,
гПа
погр.,
м
24 июня, чт
чт2401:00+9в119445 0.3 101211
04:00+9в239697 0.0 101082
07:00+9всв369573 0.0 1009223
10:00+15в457354 0.0 1006978
13:00+19вюв355664 0.1 10041623
16:00+20в3550100 0.0 10031595
19:00+14ююз3689100 2.7 1003155
22:00+11зюз3998100 6.1 1005507
25 июня, пт
пт2501:00+10ю2598100 8.8 1005197
04:00+8ююз259786 0.0 1004138
07:00+10юз2492100 0.0 1005193
10:00+15юз346560 0.0 1005818
13:00+14ю4570100 0.2 1006709
16:00+15ююз4669100 0.3 10071135
19:00+12зюз379495 1.3 1008323
22:00+11з379769 0.7 1009218
26 июня, сб
сб2601:00+9зюз3898100 0.8 1010328
04:00+10юз4997100 0.9 1011418
07:00+10юз41096100 1.4 1011415
10:00+14зюз5871100 0.1 1011884
13:00+16зюз5864100 1.0 10111328
16:00+15зсз5778100 1.2 1011989
19:00+13з2791100 2.1 1012411
22:00+11юз3895100 0.1 1012264
27 июня, вс
вс2701:00+10зюз2797100 0.1 1013249
04:00+9юз2698100 0.0 1013156
07:00+11юз3896100 0.3 1013331
10:00+14юз4689100 1.7 1013549
13:00+16юз4581100 3.6 1013939
16:00+16зюз4582100 2.3 1012857
19:00+15зюз359099 4.0 1012449
22:00+12зюз26965 0.9 1012111
28 июня, пн
пн2801:00+10зюз22975 0.9 101342
04:00+9юз229633 0.0 101326
07:00+13ююз249488 0.0 1013175
10:00+17зюз237824 1.2 1013333
13:00+19зсз126017 2.6 10131230
16:00+22зсз024620 0.6 10131729
19:00+18з116882 0.7 1013189
22:00+15всв117582 0.1 101412